{"data":{"norad_id":67781,"intl_designator":"2026-030T","name":"KUIPER-00220","alt_names":[],"object_type":"PAYLOAD","status":"ACTIVE","operator":null,"country":"US","launch_date":"2026-02-12","launch_site_code":"FRGUI","launch_vehicle":null,"mission":null,"orbit_class":"UNKNOWN","rcs_meters":null,"size_class":null,"mass_kg":null,"dimensions":null,"purposes":[],"wikipedia_slug":null,"has_3d_model":false,"image_url":null,"decayed_at":null,"tle_current":{"epoch":"2026-09-20T13:03:44.178048Z","epoch_age_seconds":82715,"freshness":"FRESH","line1":"1 67781U 26030T   26263.54426132  .00000751  00000+0  12748-3 0  9993","line2":"2 67781  51.8955  38.9592 0000681 118.2681 241.8350 14.79930366 34482","mean_motion":14.79930366,"eccentricity":6.81e-5,"inclination_deg":51.8955,"raan_deg":38.9592,"arg_perigee_deg":118.2681,"mean_anomaly_deg":241.835,"bstar":0.00012748,"rev_number":3448,"period_min":97.301875350533,"perigee_km":629.06672100033,"apogee_km":630.02116714491,"semimajor_km":7007.6809440726,"source":"CELESTRAK","updated_at":"2026-09-21T09:00:16.853025Z"}}}